Regional Weather Roundup
Issued by NWS

Home | Current Version | Previous Version | Text Only | Print | Product List | Glossary Off
Versions: 1 2 3 4 5 6 7 8 9 10 11 12 13 14 15 16 17 18 19 20 21 22 23 24 25 26 27 28 29 30 31 32 33 34 35 36 37 38 39 40 41 42 43 44 45 46 47 48 49 50

000
ASUS43 KLSX 301007
RWRMO

WEATHER SUMMARY FOR MISSOURI
NATIONAL WEATHER SERVICE SPRINGFIELD MO
500 AM CDT WED JUL 30 2014

NOTE: "FAIR" INDICATES FEW OR NO CLOUDS BELOW 12,000 FEET WITH NO
       SIGNIFICANT WEATHER AND/OR OBSTRUCTIONS TO VISIBILITY.
       CURRENT SKY AND/OR WEATHER CONDITIONS ARE NOT AVAILABLE FOR
       CHILLICOTHE AND FARMINGTON.

MOZ001>031-035>038-043-044-053-054-301100-
...NORTHERN AND WESTERN MISSOURI...

CITY           SKY/WX    TMP DP  RH WIND       PRES   REMARKS
KANSAS CTY INT MOCLDY    63  59  87 N5        30.10S
KANSAS C DTWN  CLOUDY    69  60  73 N3        30.09R
LEE`S SUMMIT   MOCLDY    63  60  90 CALM      30.10S
ST JOSEPH      MOCLDY    61  59  93 CALM      30.11R
CHILLICOTHE      N/A     58  55  90 CALM      30.10S
KIRKSVILLE     MOCLDY    58  56  93 CALM      30.09S

$$
MOZ066>068-077>081-088>096-101>105-301100-
...SOUTHWEST MISSOURI...

CITY           SKY/WX    TMP DP  RH WIND       PRES   REMARKS
SPRINGFIELD    MOCLDY    69  58  67 CALM      30.08S
JOPLIN         CLOUDY    69  63  81 N7        30.09R

$$
MOZ032>034-039>042-045>050-055>058-069>072-301100-
...CENTRAL MISSOURI...

CITY           SKY/WX    TMP DP  RH WIND       PRES   REMARKS
COLUMBIA       MOCLDY    63  56  78 S5        30.08S
JEFFERSON CITY MOCLDY    58  56  93 CALM      30.07F
ROLLA          PTCLDY    60  53  77 CALM      30.07S
SEDALIA        PTCLDY    60  57  89 CALM      30.09S
WHITEMAN AFB   MOCLDY    60  52  75 CALM      30.08S
OSAGE BEACH    PTCLDY    57  54  88 CALM      30.08S

$$
MOZ051-052-059>065-301100-
...EAST CENTRAL MISSOURI...

CITY           SKY/WX    TMP DP  RH WIND       PRES   REMARKS
ST LOUIS INTL  MOCLDY    67  57  70 CALM      30.08S
SPIRIT OF STL  CLEAR     60  57  89 CALM      30.06F
ST CHARLES     MOCLDY    56  55  97 CALM      30.07R FOG

$$
MOZ072>076-082>087-097>100-106>115-301100-
...SOUTH CENTRAL AND SOUTHEAST MISSOURI...

CITY           SKY/WX    TMP DP  RH WIND       PRES   REMARKS
CAPE GIRARDEAU MOCLDY    59  57  93 CALM      30.09R
FARMINGTON     PTCLDY    59  55  88 S3        30.12R
POPLAR BLUFF   PTCLDY    59  55  87 CALM      30.08S
WEST PLAINS    PTCLDY    62  57  83 CALM      30.11S

$$


USA.gov is the U.S. government's official web portal to all federal, state and local government web resources and services.